Volver al catálogo

OPS 4682 DEB

ActivoPO
NORAD 55122·DEBRIS·🇺🇸 United States

Lanzado Apr 3, 1965 desde Vandenberg Space Force Base

Loading…

Próximos Pases (próximas 24 horas)

TLE

ActualizadoSource: Space-Track

Época: Sep 12, 2026, 14:44 UTC

1 55122U 65027HM  26255.61389747  .00000001  00000-0 -20712-4 0  9998
2 55122  90.2481  14.8533 0034789 208.0607 166.4761 13.03251924602873

Sigue OPS 4682 DEB en tiempo real con AllMySat

Download on the App Store